Terug naar catalogus

STARLINK-31619

ActiefCommunicatieVLEO
NORAD 59531·PAYLOAD·🇺🇸 United States

Gelanceerd Apr 17, 2024 vanaf Cape Canaveral Space Force Station

Loading…

Volgende Passages (komende 24 uur)

TLE

VersSource: CelesTrak SupGP

Epoch: Sep 15, 2026, 02:18 UTC

1 59531C 24073W   26258.09631944  .00046225  00000+0  16743-2 0  2587
2 59531  43.0014 328.2125 0001455 264.6977 126.8209 15.27554914    18

Volg STARLINK-31619 in realtime met AllMySat

Download on the App Store